Location: Mount Cross
(36.6390°N, 79.4878°W)
Time: 13:20:50
(UTC+00:00)

ISS - Visible Passes

Search period start: 29 January 2023 00:00
Search period end: 08 February 2023 00:00
Orbit: 413 x 419 km, 51.6° (Epoch: 29 January)

Date Brightness Start Highest point End Pass type
(mag) Time Alt. Az. Time Alt. Az. Time Alt. Az.
30 Jan -1.0 00:34:47 10° NNW 00:35:05 11° NNW 00:35:05 11° NNW visible
30 Jan -1.7 23:46:35 10° N 23:48:32 14° NNE 23:48:40 14° NNE visible
01 Feb -1.9 00:33:41 10° NW 00:35:16 24° NNW 00:35:16 24° NNW visible
01 Feb -2.7 23:45:10 10° NNW 23:48:09 28° NNE 23:49:05 24° ENE visible
02 Feb -0.2 01:21:55 10° WNW 01:22:00 10° WNW 01:22:00 10° WNW visible
03 Feb -3.0 00:32:52 10° WNW 00:36:01 51° SW 00:36:01 51° SW visible
03 Feb -3.9 23:44:02 10° NW 23:47:24 81° NE 23:50:15 14° SE visible
05 Feb -0.9 00:32:49 10° W 00:35:01 16° SW 00:37:11 10° S visible
05 Feb -1.8 23:43:19 10° WNW 23:46:18 30° SW 23:49:17 10° SSE visible
